Regional Weather Roundup
Issued by NWS Lake Charles, LA

Home | Current Version | Previous Version | Text Only | Print | Product List | Glossary On
Versions: 1 2 3 4 5 6 7 8 9 10 11 12 13 14 15 16 17 18 19 20 21 22 23 24 25 26 27
000
ASUS44 KLCH 201410
RWRLCH
REGIONAL WEATHER ROUNDUP
NATIONAL WEATHER SERVICE LAKE CHARLES LA
800 AM CST FRI JAN 20 2017

Note: "fair" indicates few or no clouds below 12,000 feet with no
significant weather and/or obstructions to visibility.


ACROSS SOUTHEAST TEXAS

CITY           SKY/WX    TMP DP  RH WIND       PRES   REMARKS
BEAUMONT       FOG       64  63  96 SW5       29.80R VSB 3/4
BEAUMONT CITY  CLOUDY    65  63  92 SW7       29.81R
ORANGE         CLOUDY   N/A N/A N/A SW3       29.82R HAZE
JASPER         CLOUDY    62  60  94 S7        29.83R
$$

ACROSS CENTRAL LOUISIANA

CITY           SKY/WX    TMP DP  RH WIND       PRES   REMARKS
LEESVILLE      CLOUDY    61  59  94 S6        29.79R
FULLERTON      PTSUNNY   61  60  97 VRB5      29.77S
ALEXANDRIA INT MOCLDY    62  59  90 VRB3      29.78R
ESLER FIELD    CLOUDY    62  61  96 SW6       29.80R
DERIDDER       CLOUDY    61  60  96 CALM      29.82R
OAKDALE        CLOUDY    63  62  97 CALM      29.81R FOG
OPELOUSAS      CLOUDY    63  63  99 S3        29.82R
$$

ACROSS SOUTHWEST AND SOUTH CENTRAL LOUISIANA

CITY           SKY/WX    TMP DP  RH WIND       PRES   REMARKS
SULPHUR        CLOUDY    65  65 100 S3        29.81S FOG
LAKE CHARLES   CLOUDY    65  64  97 W8        29.81R FOG
CHENNAULT INT  CLOUDY    64  63  94 SW12      29.81R
CAMERON PHI    FOG       64  64 100 W7        29.81R VSB 3/4
DEQUINCY       CLOUDY    61  61  98 CALM      29.81R
JENNINGS       NOT AVBL
LAFAYETTE      FOG       64  64 100 S3        29.82R VSB<1/4
NEW IBERIA     FOG       64  63  96 S5        29.83S VSB<1/4
ABBEVILLE      FOG       61  61 100 CALM      29.84R VSB<1/4
PATTERSON      FOG       66  66 100 CALM      29.84  VSB 1/4
SALT POINT     NOT AVBL
$$

SELECTED SITES ACROSS THE REGION

CITY           SKY/WX    TMP DP  RH WIND       PRES   REMARKS
HOUSTON BUSH   CLOUDY    61  59  93 S8        29.80R FOG
HOUSTON HOBBY  FOG       59  59 100 SW12      29.82R VSB 1/2
GALVESTON      FOG       62  62 100 S5        29.81R VSB 1/2
COLLEGE STAT   CLOUDY   N/A N/A N/A SW8       29.79R HAZE
CONROE         CLOUDY    60  58  92 SW6       29.80R
HUNTSVILLE     CLOUDY    59  57  93 SW6       29.79R
LUFKIN         CLOUDY    58  56  93 S9        29.78R
SHREVEPORT     MOCLDY    58  56  93 S9        29.72R
MONROE         CLOUDY    59  57  93 S6        29.76S
NATCHEZ MS     MOCLDY    61  57  88 S7        29.80F
BATON ROUGE    CLOUDY    65  65 100 SW6       29.84R FOG
N.O. INTL ARPT PTSUNNY   66  66 100 S6        29.84R FOG
SLIDELL        CLOUDY    67  66  97 S3        29.84R FOG
$$

MARINE REPORTS

STATION/POSITION TIME  SKY/WX   TEMP    WIND        PRES    VSBY
                                AIR SEA DIR/SP/G
                 (UTC)          (F)     (DEG/KT/KT) (MB)    (MI)
BUOY 30 S HIGH I 1250            65 66  220/  6/  8 1008.5
WVE H/P(F/S)=  2/ 6

SEA RIM ST PARK  1300            61     250/  4/  5 1009.5R
PORT ARTHUR      1342               64  210/  7/  9 1009.2R
SABINE PASS N    1348            62 66  240/  2/  4 1010.6R
TEXAS POINT      NOT AVBL
CALCASIEU PASS   1348            64 65  250/  5/  6   N/A
LK CHARLES BEACH 1348            65 65              1009.7R
MARSH ISLAND     NOT AVBL
FRESH WATER LOCK 1348            66 69  200/  2/  2 1010.7R
AMERADA PASS     1348            66 52  240/  3/  5 1010.2R
$$




USA.gov is the U.S. government's official web portal to all federal, state and local government web resources and services.